Year,Month,Day,Hour,Minute,Value (Times are PST for temperature in C)
2015,05,29,00,00,16.40
2015,05,29,00,01,16.40
2015,05,29,00,02,16.30
2015,05,29,00,03,16.30
2015,05,29,00,04,16.30
2015,05,29,00,05,16.30
2015,05,29,00,06,16.30
2015,05,29,00,07,16.30
2015,05,29,00,08,16.20
2015,05,29,00,09,16.20
2015,05,29,00,10,16.20
2015,05,29,00,11,16.20
2015,05,29,00,12,16.20
2015,05,29,00,13,16.10
2015,05,29,00,14,16.10
2015,05,29,00,15,16.10
2015,05,29,00,16,16.00
2015,05,29,00,17,16.00
2015,05,29,00,18,16.00
2015,05,29,00,19,15.90
2015,05,29,00,20,15.90
2015,05,29,00,21,15.90
2015,05,29,00,22,15.90
2015,05,29,00,23,15.80
2015,05,29,00,24,15.80
2015,05,29,00,25,15.80
2015,05,29,00,26,15.70
2015,05,29,00,27,15.70
2015,05,29,00,28,15.70
2015,05,29,00,29,15.70
2015,05,29,00,30,15.70
2015,05,29,00,31,15.60
2015,05,29,00,32,15.60
2015,05,29,00,33,15.60
2015,05,29,00,34,15.60
2015,05,29,00,35,15.60
2015,05,29,00,36,15.50
2015,05,29,00,37,15.50
2015,05,29,00,38,15.50
2015,05,29,00,39,15.40
2015,05,29,00,40,15.40
2015,05,29,00,41,15.40
2015,05,29,00,42,15.40
2015,05,29,00,43,15.40
2015,05,29,00,44,15.30
2015,05,29,00,45,15.30
2015,05,29,00,46,15.30
2015,05,29,00,47,15.30
2015,05,29,00,48,15.30
2015,05,29,00,49,15.30
2015,05,29,00,50,15.30
2015,05,29,00,51,15.30
2015,05,29,00,52,15.30
2015,05,29,00,53,15.20
2015,05,29,00,54,15.20
2015,05,29,00,55,15.20
2015,05,29,00,56,15.20
2015,05,29,00,57,15.20
2015,05,29,00,58,15.20
2015,05,29,00,59,15.20
2015,05,29,01,00,15.20
2015,05,29,01,01,15.10
2015,05,29,01,02,15.10
2015,05,29,01,03,15.10
2015,05,29,01,04,15.10
2015,05,29,01,05,15.10
2015,05,29,01,06,15.10
2015,05,29,01,07,15.10
2015,05,29,01,08,15.00
2015,05,29,01,09,15.00
2015,05,29,01,10,15.00
2015,05,29,01,11,15.00
2015,05,29,01,12,15.00
2015,05,29,01,13,14.90
2015,05,29,01,14,14.90
2015,05,29,01,15,14.90
2015,05,29,01,16,14.90
2015,05,29,01,17,14.90
2015,05,29,01,18,14.90
2015,05,29,01,19,14.80
2015,05,29,01,20,14.80
2015,05,29,01,21,14.80
2015,05,29,01,22,14.80
2015,05,29,01,23,14.80
2015,05,29,01,24,14.80
2015,05,29,01,25,14.80
2015,05,29,01,26,14.80
2015,05,29,01,27,14.70
2015,05,29,01,28,14.70
2015,05,29,01,29,14.70
2015,05,29,01,30,14.70
2015,05,29,01,31,14.70
2015,05,29,01,32,14.60
2015,05,29,01,33,14.60
2015,05,29,01,34,14.60
2015,05,29,01,35,14.60
2015,05,29,01,36,14.60
2015,05,29,01,37,14.60
2015,05,29,01,38,14.50
2015,05,29,01,39,14.50
2015,05,29,01,40,14.50
2015,05,29,01,41,14.40
2015,05,29,01,42,14.40
2015,05,29,01,43,14.40
2015,05,29,01,44,14.40
2015,05,29,01,45,14.40
2015,05,29,01,46,14.30
2015,05,29,01,47,14.30
2015,05,29,01,48,14.30
2015,05,29,01,49,14.30
2015,05,29,01,50,14.30
2015,05,29,01,51,14.20
2015,05,29,01,52,14.20
2015,05,29,01,53,14.20
2015,05,29,01,54,14.20
2015,05,29,01,55,14.20
2015,05,29,01,56,14.20
2015,05,29,01,57,14.20
2015,05,29,01,58,14.20
2015,05,29,01,59,14.10
2015,05,29,02,00,14.10
2015,05,29,02,01,14.10
2015,05,29,02,02,14.10
2015,05,29,02,03,14.00
2015,05,29,02,04,14.00
2015,05,29,02,05,14.00
2015,05,29,02,06,13.90
2015,05,29,02,07,13.90
2015,05,29,02,08,13.90
2015,05,29,02,09,13.90
2015,05,29,02,10,13.90
2015,05,29,02,11,13.90
2015,05,29,02,12,13.80
2015,05,29,02,13,13.80
2015,05,29,02,14,13.80
2015,05,29,02,15,13.80
2015,05,29,02,16,13.80
2015,05,29,02,17,13.80
2015,05,29,02,18,13.80
2015,05,29,02,19,13.80
2015,05,29,02,20,13.70
2015,05,29,02,21,13.70
2015,05,29,02,22,13.70
2015,05,29,02,23,13.70
2015,05,29,02,24,13.70
2015,05,29,02,25,13.70
2015,05,29,02,26,13.70
2015,05,29,02,27,13.70
2015,05,29,02,28,13.70
2015,05,29,02,29,13.70
2015,05,29,02,30,13.70
2015,05,29,02,31,13.70
2015,05,29,02,32,13.70
2015,05,29,02,33,13.70
2015,05,29,02,34,13.70
2015,05,29,02,35,13.70
2015,05,29,02,36,13.70
2015,05,29,02,37,13.70
2015,05,29,02,38,13.70
2015,05,29,02,39,13.70
2015,05,29,02,40,13.70
2015,05,29,02,41,13.70
2015,05,29,02,42,13.70
2015,05,29,02,43,13.70
2015,05,29,02,44,13.60
2015,05,29,02,45,13.60
2015,05,29,02,46,13.60
2015,05,29,02,47,13.60
2015,05,29,02,48,13.60
2015,05,29,02,49,13.60
2015,05,29,02,50,13.60
2015,05,29,02,51,13.60
2015,05,29,02,52,13.50
2015,05,29,02,53,13.50
2015,05,29,02,54,13.50
2015,05,29,02,55,13.50
2015,05,29,02,56,13.50
2015,05,29,02,57,13.50
2015,05,29,02,58,13.50
2015,05,29,02,59,13.50
2015,05,29,03,00,13.50
2015,05,29,03,01,13.50
2015,05,29,03,02,13.50
2015,05,29,03,03,13.50
2015,05,29,03,04,13.40
2015,05,29,03,05,13.40
2015,05,29,03,06,13.40
2015,05,29,03,07,13.40
2015,05,29,03,08,13.40
2015,05,29,03,09,13.40
2015,05,29,03,10,13.30
2015,05,29,03,11,13.20
2015,05,29,03,12,13.20
2015,05,29,03,13,13.20
2015,05,29,03,14,13.10
2015,05,29,03,15,13.10
2015,05,29,03,16,13.10
2015,05,29,03,17,13.10
2015,05,29,03,18,13.10
2015,05,29,03,19,13.10
2015,05,29,03,20,13.10
2015,05,29,03,21,13.10
2015,05,29,03,22,13.10
2015,05,29,03,23,13.10
2015,05,29,03,24,13.10
2015,05,29,03,25,13.10
2015,05,29,03,26,13.10
2015,05,29,03,27,13.10
2015,05,29,03,28,13.10
2015,05,29,03,29,13.10
2015,05,29,03,30,13.10
2015,05,29,03,31,13.10
2015,05,29,03,32,13.10
2015,05,29,03,33,13.10
2015,05,29,03,34,13.10
2015,05,29,03,35,13.10
2015,05,29,03,36,13.10
2015,05,29,03,37,13.00
2015,05,29,03,38,13.00
2015,05,29,03,39,13.00
2015,05,29,03,40,13.00
2015,05,29,03,41,12.90
2015,05,29,03,42,12.80
2015,05,29,03,43,12.80
2015,05,29,03,44,12.70
2015,05,29,03,45,12.60
2015,05,29,03,46,12.50
2015,05,29,03,47,12.50
2015,05,29,03,48,12.40
2015,05,29,03,49,12.40
2015,05,29,03,50,12.30
2015,05,29,03,51,12.30
2015,05,29,03,52,12.20
2015,05,29,03,53,12.20
2015,05,29,03,54,12.10
2015,05,29,03,55,12.10
2015,05,29,03,56,12.10
2015,05,29,03,57,12.00
2015,05,29,03,58,12.00
2015,05,29,03,59,11.90
2015,05,29,04,00,11.90
2015,05,29,04,01,11.90
2015,05,29,04,02,11.80
2015,05,29,04,03,11.80
2015,05,29,04,04,11.70
2015,05,29,04,05,11.70
2015,05,29,04,06,11.70
2015,05,29,04,07,11.60
2015,05,29,04,08,11.60
2015,05,29,04,09,11.60
2015,05,29,04,10,11.50
2015,05,29,04,11,11.50
2015,05,29,04,12,11.50
2015,05,29,04,13,11.40
2015,05,29,04,14,11.40
2015,05,29,04,15,11.40
2015,05,29,04,16,11.40
2015,05,29,04,17,11.40
2015,05,29,04,18,11.30
2015,05,29,04,19,11.30
2015,05,29,04,20,11.30
2015,05,29,04,21,11.30
2015,05,29,04,22,11.30
2015,05,29,04,23,11.30
2015,05,29,04,24,11.30
2015,05,29,04,25,11.30
2015,05,29,04,26,11.20
2015,05,29,04,27,11.20
2015,05,29,04,28,11.20
2015,05,29,04,29,11.20
2015,05,29,04,30,11.20
2015,05,29,04,31,11.20
2015,05,29,04,32,11.10
2015,05,29,04,33,11.10
2015,05,29,04,34,11.10
2015,05,29,04,35,11.10
2015,05,29,04,36,11.10
2015,05,29,04,37,11.10
2015,05,29,04,38,11.10
2015,05,29,04,39,11.10
2015,05,29,04,40,11.00
2015,05,29,04,41,11.00
2015,05,29,04,42,11.00
2015,05,29,04,43,11.00
2015,05,29,04,44,11.00
2015,05,29,04,45,10.90
2015,05,29,04,46,10.90
2015,05,29,04,47,10.90
2015,05,29,04,48,10.90
2015,05,29,04,49,10.90
2015,05,29,04,50,10.90
2015,05,29,04,51,10.80
2015,05,29,04,52,10.80
2015,05,29,04,53,10.80
2015,05,29,04,54,10.80
2015,05,29,04,55,10.80
2015,05,29,04,56,10.80
2015,05,29,04,57,10.80
2015,05,29,04,58,10.80
2015,05,29,04,59,10.80
2015,05,29,05,00,10.80
2015,05,29,05,01,10.80
2015,05,29,05,02,10.70
2015,05,29,05,03,10.70
2015,05,29,05,04,10.70
2015,05,29,05,05,10.70
2015,05,29,05,06,10.70
2015,05,29,05,07,10.70
2015,05,29,05,08,10.70
2015,05,29,05,09,10.70
2015,05,29,05,10,10.70
2015,05,29,05,11,10.60
2015,05,29,05,12,10.60
2015,05,29,05,13,10.60
2015,05,29,05,14,10.60
2015,05,29,05,15,10.60
2015,05,29,05,16,10.60
2015,05,29,05,17,10.70
2015,05,29,05,18,10.70
2015,05,29,05,19,10.70
2015,05,29,05,20,10.70
2015,05,29,05,21,10.70
2015,05,29,05,22,10.70
2015,05,29,05,23,10.70
2015,05,29,05,24,10.70
2015,05,29,05,25,10.70
2015,05,29,05,26,10.70
2015,05,29,05,27,10.70
2015,05,29,05,28,10.70
2015,05,29,05,29,10.70
2015,05,29,05,30,10.70
2015,05,29,05,31,10.70
2015,05,29,05,32,10.80
2015,05,29,05,33,10.80
2015,05,29,05,34,10.80
2015,05,29,05,35,10.80
2015,05,29,05,36,10.80
2015,05,29,05,37,10.80
2015,05,29,05,38,10.80
2015,05,29,05,39,10.80
2015,05,29,05,40,10.80
2015,05,29,05,41,10.70
2015,05,29,05,42,10.70
2015,05,29,05,43,10.70
2015,05,29,05,44,10.70
2015,05,29,05,45,10.70
2015,05,29,05,46,10.70
2015,05,29,05,47,10.60
2015,05,29,05,48,10.60
2015,05,29,05,49,10.60
2015,05,29,05,50,10.60
2015,05,29,05,51,10.60
2015,05,29,05,52,10.60
2015,05,29,05,53,10.60
2015,05,29,05,54,10.60
2015,05,29,05,55,10.50
2015,05,29,05,56,10.50
2015,05,29,05,57,10.50
2015,05,29,05,58,10.40
2015,05,29,05,59,10.40
2015,05,29,06,00,10.40
2015,05,29,06,01,10.40
2015,05,29,06,02,10.40
2015,05,29,06,03,10.40
2015,05,29,06,04,10.30
2015,05,29,06,05,10.30
2015,05,29,06,06,10.30
2015,05,29,06,07,10.30
2015,05,29,06,08,10.30
2015,05,29,06,09,10.30
2015,05,29,06,10,10.30
2015,05,29,06,11,10.30
2015,05,29,06,12,10.30
2015,05,29,06,13,10.30
2015,05,29,06,14,10.30
2015,05,29,06,15,10.30
2015,05,29,06,16,10.30
2015,05,29,06,17,10.30
2015,05,29,06,18,10.40
2015,05,29,06,19,10.40
2015,05,29,06,20,10.40
2015,05,29,06,21,10.40
2015,05,29,06,22,10.40
2015,05,29,06,23,10.40
2015,05,29,06,24,10.40
2015,05,29,06,25,10.50
2015,05,29,06,26,10.50
2015,05,29,06,27,10.50
2015,05,29,06,28,10.50
2015,05,29,06,29,10.40
2015,05,29,06,30,10.40
2015,05,29,06,31,10.40
2015,05,29,06,32,10.30
2015,05,29,06,33,10.30
2015,05,29,06,34,10.30
2015,05,29,06,35,10.30
2015,05,29,06,36,10.20
2015,05,29,06,37,10.20
2015,05,29,06,38,10.20
2015,05,29,06,39,10.20
2015,05,29,06,40,10.20
2015,05,29,06,41,10.20
2015,05,29,06,42,10.20
2015,05,29,06,43,10.20
2015,05,29,06,44,10.20
2015,05,29,06,45,10.30
2015,05,29,06,46,10.30
2015,05,29,06,47,10.30
2015,05,29,06,48,10.40
2015,05,29,06,49,10.40
2015,05,29,06,50,10.40
2015,05,29,06,51,10.40
2015,05,29,06,52,10.50
2015,05,29,06,53,10.50
2015,05,29,06,54,10.60
2015,05,29,06,55,10.60
2015,05,29,06,56,10.60
2015,05,29,06,57,10.60
2015,05,29,06,58,10.70
2015,05,29,06,59,10.70
2015,05,29,07,00,10.80
2015,05,29,07,01,10.80
2015,05,29,07,02,10.80
2015,05,29,07,03,10.90
2015,05,29,07,04,10.90
2015,05,29,07,05,11.00
2015,05,29,07,06,11.00
2015,05,29,07,07,11.10
2015,05,29,07,08,11.10
2015,05,29,07,09,11.20
2015,05,29,07,10,11.20
2015,05,29,07,11,11.20
2015,05,29,07,12,11.30
2015,05,29,07,13,11.30
2015,05,29,07,14,11.30
2015,05,29,07,15,11.30
2015,05,29,07,16,11.40
2015,05,29,07,17,11.40
2015,05,29,07,18,11.40
2015,05,29,07,19,11.40
2015,05,29,07,20,11.40
2015,05,29,07,21,11.40
2015,05,29,07,22,11.40
2015,05,29,07,23,11.40
2015,05,29,07,24,11.40
2015,05,29,07,25,11.40
2015,05,29,07,26,11.40
2015,05,29,07,27,11.40
2015,05,29,07,28,11.50
2015,05,29,07,29,11.50
2015,05,29,07,30,11.50
2015,05,29,07,31,11.60
2015,05,29,07,32,11.60
2015,05,29,07,33,11.60
2015,05,29,07,34,11.70
2015,05,29,07,35,11.70
2015,05,29,07,36,11.70
2015,05,29,07,37,11.80
2015,05,29,07,38,11.80
2015,05,29,07,39,11.80
2015,05,29,07,40,11.90
2015,05,29,07,41,11.90
2015,05,29,07,42,12.00
2015,05,29,07,43,12.00
2015,05,29,07,44,12.00
2015,05,29,07,45,12.10
2015,05,29,07,46,12.10
2015,05,29,07,47,12.20
2015,05,29,07,48,12.20
2015,05,29,07,49,12.30
2015,05,29,07,50,12.30
2015,05,29,07,51,12.30
2015,05,29,07,52,12.40
2015,05,29,07,53,12.40
2015,05,29,07,54,12.40
2015,05,29,07,55,12.50
2015,05,29,07,56,12.50
2015,05,29,07,57,12.50
2015,05,29,07,58,12.60
2015,05,29,07,59,12.60
2015,05,29,08,00,12.60
2015,05,29,08,01,12.70
2015,05,29,08,02,12.70
2015,05,29,08,03,12.80
2015,05,29,08,04,12.80
2015,05,29,08,05,12.80
2015,05,29,08,06,12.80
2015,05,29,08,07,12.80
2015,05,29,08,08,12.80
2015,05,29,08,09,12.90
2015,05,29,08,10,12.90
2015,05,29,08,11,12.90
2015,05,29,08,12,12.90
2015,05,29,08,13,12.90
2015,05,29,08,14,12.90
2015,05,29,08,15,13.00
2015,05,29,08,16,13.00
2015,05,29,08,17,13.10
2015,05,29,08,18,13.10
2015,05,29,08,19,13.10
2015,05,29,08,20,13.20
2015,05,29,08,21,13.20
2015,05,29,08,22,13.20
2015,05,29,08,23,13.30
2015,05,29,08,24,13.30
2015,05,29,08,25,13.30
2015,05,29,08,26,13.40
2015,05,29,08,27,13.40
2015,05,29,08,28,13.50
2015,05,29,08,29,13.50
2015,05,29,08,30,13.60
2015,05,29,08,31,13.60
2015,05,29,08,32,13.60
2015,05,29,08,33,13.70
2015,05,29,08,34,13.70
2015,05,29,08,35,13.70
2015,05,29,08,36,13.80
2015,05,29,08,37,13.80
2015,05,29,08,38,13.80
2015,05,29,08,39,13.90
2015,05,29,08,40,13.90
2015,05,29,08,41,14.00
2015,05,29,08,42,14.00
2015,05,29,08,43,14.10
2015,05,29,08,44,14.10
2015,05,29,08,45,14.10
2015,05,29,08,46,14.10
2015,05,29,08,47,14.10
2015,05,29,08,48,14.20
2015,05,29,08,49,14.20
2015,05,29,08,50,14.20
2015,05,29,08,51,14.30
2015,05,29,08,52,14.30
2015,05,29,08,53,14.30
2015,05,29,08,54,14.30
2015,05,29,08,55,14.40
2015,05,29,08,56,14.40
2015,05,29,08,57,14.50
2015,05,29,08,58,14.50
2015,05,29,08,59,14.60
2015,05,29,09,00,14.70
2015,05,29,09,01,14.70
2015,05,29,09,02,14.80
2015,05,29,09,03,14.80
2015,05,29,09,04,14.80
2015,05,29,09,05,14.80
2015,05,29,09,06,14.80
2015,05,29,09,07,14.80
2015,05,29,09,08,14.80
2015,05,29,09,09,14.80
2015,05,29,09,10,14.90
2015,05,29,09,11,14.90
2015,05,29,09,12,14.90
2015,05,29,09,13,15.00
2015,05,29,09,14,15.00
2015,05,29,09,15,15.00
2015,05,29,09,16,15.10
2015,05,29,09,17,15.20
2015,05,29,09,18,15.30
2015,05,29,09,19,15.30
2015,05,29,09,20,15.40
2015,05,29,09,21,15.40
2015,05,29,09,22,15.50
2015,05,29,09,23,15.50
2015,05,29,09,24,15.60
2015,05,29,09,25,15.60
2015,05,29,09,26,15.70
2015,05,29,09,27,15.70
2015,05,29,09,28,15.70
2015,05,29,09,29,15.70
2015,05,29,09,30,15.80
2015,05,29,09,31,15.80
2015,05,29,09,32,15.80
2015,05,29,09,33,15.80
2015,05,29,09,34,15.80
2015,05,29,09,35,15.80
2015,05,29,09,36,15.80
2015,05,29,09,37,15.90
2015,05,29,09,38,15.90
2015,05,29,09,39,15.90
2015,05,29,09,40,15.90
2015,05,29,09,41,16.00
2015,05,29,09,42,16.00
2015,05,29,09,43,16.10
2015,05,29,09,44,16.10
2015,05,29,09,45,16.20
2015,05,29,09,46,16.20
2015,05,29,09,47,16.30
2015,05,29,09,48,16.30
2015,05,29,09,49,16.30
2015,05,29,09,50,16.30
2015,05,29,09,51,16.30
2015,05,29,09,52,16.40
2015,05,29,09,53,16.40
2015,05,29,09,54,16.40
2015,05,29,09,55,16.40
2015,05,29,09,56,16.40
2015,05,29,09,57,16.50
2015,05,29,09,58,16.50
2015,05,29,09,59,16.60
2015,05,29,10,00,16.70
2015,05,29,10,01,16.70
2015,05,29,10,02,16.80
2015,05,29,10,03,16.80
2015,05,29,10,04,16.90
2015,05,29,10,05,16.80
2015,05,29,10,06,16.80
2015,05,29,10,07,16.80
2015,05,29,10,08,16.80
2015,05,29,10,09,16.80
2015,05,29,10,10,16.90
2015,05,29,10,11,16.90
2015,05,29,10,12,16.90
2015,05,29,10,13,16.90
2015,05,29,10,14,16.90
2015,05,29,10,15,16.90
2015,05,29,10,16,16.90
2015,05,29,10,17,16.90
2015,05,29,10,18,16.90
2015,05,29,10,19,16.90
2015,05,29,10,20,16.90
2015,05,29,10,21,16.90
2015,05,29,10,22,17.00
2015,05,29,10,23,17.00
2015,05,29,10,24,17.10
2015,05,29,10,25,17.20
2015,05,29,10,26,17.30
2015,05,29,10,27,17.30
2015,05,29,10,28,17.40
2015,05,29,10,29,17.40
2015,05,29,10,30,17.50
2015,05,29,10,31,17.50
2015,05,29,10,32,17.50
2015,05,29,10,33,17.60
2015,05,29,10,34,17.60
2015,05,29,10,35,17.60
2015,05,29,10,36,17.60
2015,05,29,10,37,17.60
2015,05,29,10,38,17.60
2015,05,29,10,39,17.60
2015,05,29,10,40,17.60
2015,05,29,10,41,17.60
2015,05,29,10,42,17.60
2015,05,29,10,43,17.60
2015,05,29,10,44,17.60
2015,05,29,10,45,17.70
2015,05,29,10,46,17.80
2015,05,29,10,47,17.80
2015,05,29,10,48,17.90
2015,05,29,10,49,18.00
2015,05,29,10,50,18.00
2015,05,29,10,51,18.00
2015,05,29,10,52,18.00
2015,05,29,10,53,18.00
2015,05,29,10,54,18.00
2015,05,29,10,55,17.90
2015,05,29,10,56,17.90
2015,05,29,10,57,17.90
2015,05,29,10,58,17.80
2015,05,29,10,59,17.90
2015,05,29,11,00,17.90
2015,05,29,11,01,17.90
2015,05,29,11,02,18.00
2015,05,29,11,03,18.20
2015,05,29,11,04,18.30
2015,05,29,11,05,18.40
2015,05,29,11,06,18.50
2015,05,29,11,07,18.50
2015,05,29,11,08,18.60
2015,05,29,11,09,18.60
2015,05,29,11,10,18.60
2015,05,29,11,11,18.60
2015,05,29,11,12,18.50
2015,05,29,11,13,18.40
2015,05,29,11,14,18.30
2015,05,29,11,15,18.30
2015,05,29,11,16,18.30
2015,05,29,11,17,18.30
2015,05,29,11,18,18.30
2015,05,29,11,19,18.30
2015,05,29,11,20,18.30
2015,05,29,11,21,18.30
2015,05,29,11,22,18.40
2015,05,29,11,23,18.40
2015,05,29,11,24,18.50
2015,05,29,11,25,18.60
2015,05,29,11,26,18.70
2015,05,29,11,27,18.80
2015,05,29,11,28,18.80
2015,05,29,11,29,18.70
2015,05,29,11,30,18.70
2015,05,29,11,31,18.70
2015,05,29,11,32,18.70
2015,05,29,11,33,18.70
2015,05,29,11,34,18.80
2015,05,29,11,35,18.80
2015,05,29,11,36,18.80
2015,05,29,11,37,18.80
2015,05,29,11,38,18.80
2015,05,29,11,39,18.80
2015,05,29,11,40,18.80
2015,05,29,11,41,18.90
2015,05,29,11,42,19.00
2015,05,29,11,43,19.10
2015,05,29,11,44,19.10
2015,05,29,11,45,19.20
2015,05,29,11,46,19.20
2015,05,29,11,47,19.20
2015,05,29,11,48,19.30
2015,05,29,11,49,19.30
2015,05,29,11,50,19.30
2015,05,29,11,51,19.30
2015,05,29,11,52,19.20
2015,05,29,11,53,19.20
2015,05,29,11,54,19.10
2015,05,29,11,55,19.10
2015,05,29,11,56,19.10
2015,05,29,11,57,19.10
2015,05,29,11,58,19.10
2015,05,29,11,59,19.10
2015,05,29,12,00,19.10
2015,05,29,12,01,19.10
2015,05,29,12,02,19.20
2015,05,29,12,03,19.20
2015,05,29,12,04,19.20
2015,05,29,12,05,19.20
2015,05,29,12,06,19.20
2015,05,29,12,07,19.20
2015,05,29,12,08,19.30
2015,05,29,12,09,19.40
2015,05,29,12,10,19.40
2015,05,29,12,11,19.50
2015,05,29,12,12,19.60
2015,05,29,12,13,19.60
2015,05,29,12,14,19.70
2015,05,29,12,15,19.70
2015,05,29,12,16,19.70
2015,05,29,12,17,19.80
2015,05,29,12,18,19.80
2015,05,29,12,19,19.90
2015,05,29,12,20,20.00
2015,05,29,12,21,20.00
2015,05,29,12,22,20.10
2015,05,29,12,23,20.10
2015,05,29,12,24,20.10
2015,05,29,12,25,20.10
2015,05,29,12,26,20.10
2015,05,29,12,27,20.10
2015,05,29,12,28,20.10
2015,05,29,12,29,20.10
2015,05,29,12,30,20.10
2015,05,29,12,31,20.10
2015,05,29,12,32,20.10
2015,05,29,12,33,20.20
2015,05,29,12,34,20.20
2015,05,29,12,35,20.20
2015,05,29,12,36,20.30
2015,05,29,12,37,20.30
2015,05,29,12,38,20.30
2015,05,29,12,39,20.20
2015,05,29,12,40,20.10
2015,05,29,12,41,20.00
2015,05,29,12,42,19.80
2015,05,29,12,43,19.80
2015,05,29,12,44,19.80
2015,05,29,12,45,19.80
2015,05,29,12,46,19.90
2015,05,29,12,47,20.00
2015,05,29,12,48,20.10
2015,05,29,12,49,20.20
2015,05,29,12,50,20.30
2015,05,29,12,51,20.30
2015,05,29,12,52,20.30
2015,05,29,12,53,20.40
2015,05,29,12,54,20.40
2015,05,29,12,55,20.40
2015,05,29,12,56,20.50
2015,05,29,12,57,20.50
2015,05,29,12,58,20.60
2015,05,29,12,59,20.70
2015,05,29,13,00,20.80
2015,05,29,13,01,20.90
2015,05,29,13,02,20.90
2015,05,29,13,03,20.90
2015,05,29,13,04,20.90
2015,05,29,13,05,20.90
2015,05,29,13,06,20.90
2015,05,29,13,07,21.00
2015,05,29,13,08,21.10
2015,05,29,13,09,21.00
2015,05,29,13,10,21.00
2015,05,29,13,11,20.90
2015,05,29,13,12,20.80
2015,05,29,13,13,20.80
2015,05,29,13,14,20.80
2015,05,29,13,15,20.80
2015,05,29,13,16,20.80
2015,05,29,13,17,20.70
2015,05,29,13,18,20.70
2015,05,29,13,19,20.70
2015,05,29,13,20,20.80
2015,05,29,13,21,20.80
2015,05,29,13,22,20.90
2015,05,29,13,23,20.90
2015,05,29,13,24,20.90
2015,05,29,13,25,20.90
2015,05,29,13,26,20.90
2015,05,29,13,27,20.90
2015,05,29,13,28,20.90
2015,05,29,13,29,21.00
2015,05,29,13,30,21.00
2015,05,29,13,31,21.00
2015,05,29,13,32,21.10
2015,05,29,13,33,21.10
2015,05,29,13,34,21.20
2015,05,29,13,35,21.20
2015,05,29,13,36,21.20
2015,05,29,13,37,21.20
2015,05,29,13,38,21.20
2015,05,29,13,39,21.20
2015,05,29,13,40,21.20
2015,05,29,13,41,21.20
2015,05,29,13,42,21.30
2015,05,29,13,43,21.30
2015,05,29,13,44,21.30
2015,05,29,13,45,21.40
2015,05,29,13,46,21.40
2015,05,29,13,47,21.40
2015,05,29,13,48,21.50
2015,05,29,13,49,21.50
2015,05,29,13,50,21.60
2015,05,29,13,51,21.60
2015,05,29,13,52,21.70
2015,05,29,13,53,21.70
2015,05,29,13,54,21.70
2015,05,29,13,55,21.70
2015,05,29,13,56,21.70
2015,05,29,13,57,21.60
2015,05,29,13,58,21.50
2015,05,29,13,59,21.50
2015,05,29,14,00,21.50
2015,05,29,14,01,21.40
2015,05,29,14,02,21.40
2015,05,29,14,03,21.40
2015,05,29,14,04,21.40
2015,05,29,14,05,21.40
2015,05,29,14,06,21.30
2015,05,29,14,07,21.30
2015,05,29,14,08,21.20
2015,05,29,14,09,21.20
2015,05,29,14,10,21.20
2015,05,29,14,11,21.10
2015,05,29,14,12,21.10
2015,05,29,14,13,21.00
2015,05,29,14,14,20.90
2015,05,29,14,15,20.90
2015,05,29,14,16,20.80
2015,05,29,14,17,20.80
2015,05,29,14,18,20.90
2015,05,29,14,19,21.00
2015,05,29,14,20,21.20
2015,05,29,14,21,21.30
2015,05,29,14,22,21.30
2015,05,29,14,23,21.40
2015,05,29,14,24,21.50
2015,05,29,14,25,21.50
2015,05,29,14,26,21.60
2015,05,29,14,27,21.60
2015,05,29,14,28,21.70
2015,05,29,14,29,21.70
2015,05,29,14,30,21.70
2015,05,29,14,31,21.80
2015,05,29,14,32,21.90
2015,05,29,14,33,22.00
2015,05,29,14,34,22.00
2015,05,29,14,35,22.10
2015,05,29,14,36,22.10
2015,05,29,14,37,22.10
2015,05,29,14,38,22.20
2015,05,29,14,39,22.10
2015,05,29,14,40,22.10
2015,05,29,14,41,22.10
2015,05,29,14,42,22.20
2015,05,29,14,43,22.30
2015,05,29,14,44,22.30
2015,05,29,14,45,22.30
2015,05,29,14,46,22.30
2015,05,29,14,47,22.40
2015,05,29,14,48,22.30
2015,05,29,14,49,22.30
2015,05,29,14,50,22.30
2015,05,29,14,51,22.30
2015,05,29,14,52,22.30
2015,05,29,14,53,22.30
2015,05,29,14,54,22.30
2015,05,29,14,55,22.30
2015,05,29,14,56,22.30
2015,05,29,14,57,22.30
2015,05,29,14,58,22.30
2015,05,29,14,59,22.30
2015,05,29,15,00,22.30
2015,05,29,15,01,22.20
2015,05,29,15,02,22.20
2015,05,29,15,03,22.20
2015,05,29,15,04,22.30
2015,05,29,15,05,22.30
2015,05,29,15,06,22.30
2015,05,29,15,07,22.40
2015,05,29,15,08,22.40
2015,05,29,15,09,22.50
2015,05,29,15,10,22.60
2015,05,29,15,11,22.50
2015,05,29,15,12,22.50
2015,05,29,15,13,22.40
2015,05,29,15,14,22.40
2015,05,29,15,15,22.30
2015,05,29,15,16,22.30
2015,05,29,15,17,22.20
2015,05,29,15,18,22.20
2015,05,29,15,19,22.20
2015,05,29,15,20,22.20
2015,05,29,15,21,22.30
2015,05,29,15,22,22.30
2015,05,29,15,23,22.40
2015,05,29,15,24,22.30
2015,05,29,15,25,22.40
2015,05,29,15,26,22.50
2015,05,29,15,27,22.60
2015,05,29,15,28,22.80
2015,05,29,15,29,22.90
2015,05,29,15,30,23.00
2015,05,29,15,31,23.10
2015,05,29,15,32,23.10
2015,05,29,15,33,23.10
2015,05,29,15,34,23.20
2015,05,29,15,35,23.20
2015,05,29,15,36,23.20
2015,05,29,15,37,23.20
2015,05,29,15,38,23.10
2015,05,29,15,39,23.00
2015,05,29,15,40,23.00
2015,05,29,15,41,23.00
2015,05,29,15,42,23.10
2015,05,29,15,43,23.10
2015,05,29,15,44,23.10
2015,05,29,15,45,23.10
2015,05,29,15,46,23.00
2015,05,29,15,47,22.90
2015,05,29,15,48,22.80
2015,05,29,15,49,22.80
2015,05,29,15,50,22.70
2015,05,29,15,51,22.50
2015,05,29,15,52,22.40
2015,05,29,15,53,22.40
2015,05,29,15,54,22.40
2015,05,29,15,55,22.30
2015,05,29,15,56,22.30
2015,05,29,15,57,22.30
2015,05,29,15,58,22.30
2015,05,29,15,59,22.30
2015,05,29,16,00,22.40
2015,05,29,16,01,22.50
2015,05,29,16,02,22.60
2015,05,29,16,03,22.60
2015,05,29,16,04,22.60
2015,05,29,16,05,22.60
2015,05,29,16,06,22.60
2015,05,29,16,07,22.70
2015,05,29,16,08,22.70
2015,05,29,16,09,22.70
2015,05,29,16,10,22.70
2015,05,29,16,11,22.80
2015,05,29,16,12,22.90
2015,05,29,16,13,22.90
2015,05,29,16,14,23.00
2015,05,29,16,15,23.00
2015,05,29,16,16,23.10
2015,05,29,16,17,23.20
2015,05,29,16,18,23.20
2015,05,29,16,19,23.20
2015,05,29,16,20,23.20
2015,05,29,16,21,23.20
2015,05,29,16,22,23.20
2015,05,29,16,23,23.10
2015,05,29,16,24,23.10
2015,05,29,16,25,23.00
2015,05,29,16,26,23.00
2015,05,29,16,27,23.00
2015,05,29,16,28,23.00
2015,05,29,16,29,23.00
2015,05,29,16,30,23.00
2015,05,29,16,31,23.10
2015,05,29,16,32,23.20
2015,05,29,16,33,23.30
2015,05,29,16,34,23.30
2015,05,29,16,35,23.40
2015,05,29,16,36,23.50
2015,05,29,16,37,23.60
2015,05,29,16,38,23.70
2015,05,29,16,39,23.70
2015,05,29,16,40,23.70
2015,05,29,16,41,23.70
2015,05,29,16,42,23.70
2015,05,29,16,43,23.80
2015,05,29,16,44,23.80
2015,05,29,16,45,23.80
2015,05,29,16,46,23.90
2015,05,29,16,47,23.90
2015,05,29,16,48,23.80
2015,05,29,16,49,23.90
2015,05,29,16,50,23.90
2015,05,29,16,51,24.00
2015,05,29,16,52,24.00
2015,05,29,16,53,24.00
2015,05,29,16,54,24.00
2015,05,29,16,55,24.00
2015,05,29,16,56,24.00
2015,05,29,16,57,24.00
2015,05,29,16,58,24.00
2015,05,29,16,59,24.00
2015,05,29,17,00,24.00
2015,05,29,17,01,24.00
2015,05,29,17,02,24.10
2015,05,29,17,03,24.10
2015,05,29,17,04,24.10
2015,05,29,17,05,24.10
2015,05,29,17,06,24.10
2015,05,29,17,07,24.10
2015,05,29,17,08,24.10
2015,05,29,17,09,24.00
2015,05,29,17,10,24.00
2015,05,29,17,11,24.00
2015,05,29,17,12,24.00
2015,05,29,17,13,23.90
2015,05,29,17,14,23.80
2015,05,29,17,15,23.80
2015,05,29,17,16,23.80
2015,05,29,17,17,23.80
2015,05,29,17,18,23.80
2015,05,29,17,19,23.90